Skip Page Navigation
NASA JPL Caltech
NASA Logo - Jet Propulsion Laboratory + View the NASA Portal
+ Near-Earth Object (NEO) Program
Search JPL
JPL Home Earth Solar System Stars & Galaxies Technology
JPL Solar System Dynamics
BODIES ORBITS EPHEMERIDES TOOLS PHYSICAL DATA DISCOVERY FAQ SITE MAP
JPL Small-Body Database Browser
Search: [ help ]  
(2002 GM5)
Classification: Apollo [NEO, PHA]          SPK-ID: 3120885
Ephemeris | Orbit Diagram | Orbital Elements | Physical Parameters | Close-Approach Data ]

[ hide orbit diagram ]
Orbit Diagram
Note: Make sure you have Java enabled on your browser to see the applet. This applet is provided as a 3D orbit visualization tool. The applet was implemented using 2-body methods, and hence should not be used for determining accurate long-term trajectories (over several years or decades) or planetary encounter circumstances. For accurate long-term ephemerides, please instead use our Horizons system.
Orbit Viewer

Additional Notes: the orbits shown in the applet are color coded. The planets are white lines, and the asteroid/comet is a blue line. The bright white line indicates the portion of the orbit that is above the ecliptic plane, and the darker portion is below the ecliptic plane. Likewise for the asteroid/comet orbit, the light blue indicates the portion above the ecliptic plane, and the dark blue the portion below the ecliptic plane.

Orbit Viewer applet originally written and kindly provided by Osamu Ajiki (AstroArts), and further modified by Ron Baalke (JPL).


Orbital Elements at Epoch 2452377.5 (2002-Apr-13.0) TDB
Reference: JPL 7 (heliocentric ecliptic J2000)
 Element Value Uncertainty (1-sigma)   Units 
e .6960339573463054 0.010806  
a 2.12739649477752 0.063004 AU
q .6466562936728643 0.0038377 AU
i 7.310233112438045 0.12454 deg
node 14.00563157824268 0.034473 deg
peri 274.0217868455135 0.061291 deg
M 343.2019990921565 0.84147 deg
tp 2452430.384230017265
(2002-Jun-04.88423002)
0.29988 JED
period 1133.368363929891
3.10
50.348
0.1378
d
yr
n .3176372408629091 0.01411 deg/d
Q 3.608136695882176 0.10686 AU
  Orbit Determination Parameters
   # obs. used (total)      23  
   data-arc span      7 days  
   first obs. used      2002-04-10  
   last obs. used      2002-04-17  
   planetary ephem.      DE405  
   SB-pert. ephem.      SB405-CPV-2  
   condition code      9  
   fit RMS      .62571  
   data source      ORB  
   producer      Otto Matic  
   solution date      2011-Sep-14 19:45:35  

Additional Information
 Earth MOID = .00823467 AU 
 T_jup = 3.357 
[ show covariance matrix ]

Ephemeris | Orbit Diagram | Orbital Elements | Physical Parameters | Close-Approach Data ]

Physical Parameter Table
Parameter Symbol Value Units Sigma Reference Notes
absolute magnitude H 21.37 mag .8306 7 autocmod 2.5a

[ show close-approach data ]
Ephemeris | Orbit Diagram | Orbital Elements | Physical Parameters | Close-Approach Data ]
ABOUT SSD CREDITS/AWARDS PRIVACY/COPYRIGHT GLOSSARY LINKS
FirstGov 2013-May-23 03:41 UT
(server date/time)  
NASA Home Page
Site Manager:   Donald K. Yeomans
Webmaster  Alan B. Chamberlin